SCP
0 0 0 0 -0 0 -0 0 0 0 0 0 0 -0 0 0 0 0 -0 0 -0 -0 0 0 -0 -0 -0 -0 -0 -0 -0 -0 -0 -0 -0 -0 -0 -0 -0 -0 -0 -0 -0 -0 -0 -0 -0 -0 -0
0 0 0 0 0 -0 -0 0 0 0 0 0 -0 0 0 0 -0 0 0 -0 -0 -0 -0 0 -0 -0 -0 -0 -0 -0 -0 -0 -0 -0 -0 -0 -0 -0 -0 -0 -0 -0 -0 -0 -0 -0 -0 -0 -0
0 0 0 0 0 -0 -0 0 -0 0 0 0 0 0 0 0 -0 0 0 -0 -0 -0 -0 0 -0 -0 -0 -0 -0 -0 -0 -0 -0 -0 -0 -0 -0 -0 -0 -0 -0 -0 -0 -0 -0 -0 -0 -0 -0
0 0 0 0 -0 -0 -0 -0 -0 0 0 0 0 0 -0 0 -0 0 0 -0 -0 -0 -0 -0 -0 -0 -0 -0 -0 -0 -0 -0 -0 -0 -0 -0 -0 -0 -0 -0 -0 -0 -0 -0 -0 -0 -0 -0 -0
0 0 0 0 -0 -0 0 -0 -0 -0 -0 0 0 0 0 0 0 -0 -0 -0 -0 -0 -0 -0 -0 -0 -0 -0 -0 -0 -0 -0 -0 -0 -0 -0 -0 -0 -0 -0 -0 -0 -0 -0 -0 -0 -0 -0 -0
0 0 0 0 -0 -0 -0 -0 -0 -0 -0 -0 0 -0 0 0 -0 0 0 -0 -0 -0 -0 -0 -0 -0 -0 -0 -0 -0 -0 -0 -0 -0 -0 -0 -0 -0 -0 -0 -0 -0 -0 -0 -0 -0 -0 -0 -0
0 0 0 0 -0 -0 0 -0 -0 -0 -0 -0 -0 -0 0 0 -0 -0 -0 -0 -0 -0 -0 -0 -0 -0 -0 -0 -0 -0 -0 -0 -0 -0 -0 -0 -0 -0 -0 -0 -0 -0 -0 -0 -0 -0 -0 -0 -0
0 0 0 0 0 -0 -0 0 0 0 0 0 -0 -0 -0 -0 -0 -0 0 -0 -0 -0 -0 -0 -0 0 0 0 -0 -0 -0 -0 -0 -0 -0 -0 -0 -0 -0 -0 -0 -0 -0 -0 -0 -0 -0 -0 -0
0 0 0 0 0 0 -0 0 0 0 0 0 0 -0 0 -0 -0 0 0 0 0 0 -0 -0 -0 0 0 0 0 -0 -0 -0 -0 -0 -0 -0 0 0 0 0 -0 -0 -0 -0 -0 -0 -0 -0 -0
0 0 0 0 0 0 0 0 0 0 0 0 0 -0 -0 -0 -0 -0 0 0 0 0 0 -0 0 -0 0 0 0 0 0 0 0 0 0 0 0 0 0 0 0 -0 -0 -0 -0 -0 0 0 0
0 0 0 0 0 0 0 0 0 0 0 0 -0 -0 -0 -0 -0 -0 0 0 0 0 0 0 -0 0 -0 0 0 0 0 0 0 0 0 0 0 0 0 0 0 0 0 0 0 0 0 0 0
0 0 0 0 0 0 0 0 0 0 0 0 0 -0 -0 -0 -0 -0 -0 0 0 0 0 0 -0 0 0 0 0 0 0 0 0 0 0 0 0 0 0 0 0 0 0 0 0 0 0 0 0
0 0 0 0 0 0 0 0 0 0 0 -0 0 -0 -0 -0 -0 0 0 0 0 0 0 0 0 0 0 0 0 0 0 0 0 0 0 0 0 0 0 0 0 0 0 0 0 0 0 0 0
0 0 0 0 0 0 0 0 0 0 0 -0 0 0 -0 -0 -0 0 0 0 0 0 0 0 0 0 0 0 0 0 0 0 0 0 0 0 0 0 0 0 0 0 0 0 0 0 0 0 0
0 0 0 0 0 0 0 0 0 0 0 0 0 0 0 -0 0 0 0 0 0 0 0 0 0 0 0 0 0 0 0 0 0 0 0 0 0 0 0 0 0 0 0 0 0 0 0 0 0
0 0 0 0 0 0 0 0 0 0 0 0 0 0 0 0 0 0 0 0 0 0 0 0 0 0 0 0 0 0 0 0 0 0 0 0 0 0 0 0 0 0 0 0 0 0 0 0 0
0 0 0 0 0 0 0 0 0 0 0 0 0 0 0 0 0 0 0 0 0 0 0 0 0 0 0 0 0 0 0 0 0 0 0 0 0 0 0 0 0 0 0 0 0 0 0 0 0
0 0 0 0 0 0 0 0 0 0 0 0 0 0 0 0 0 0 0 0 0 0 0 0 0 0 0 0 0 0 0 0 0 0 0 0 0 0 0 0 0 0 0 0 0 0 0 0 0
0 0 0 0 0 0 0 0 0 0 0 0 0 0 0 0 0 0 0 0 0 0 0 0 0 0 0 0 0 0 0 0 0 0 0 0 0 0 0 0 0 0 0 0 0 0 0 0 0
0 0 0 0 0 0 -0 -0 0 0 0 0 0 0 -0 0 0 0 0 0 0 0 0 0 0 0 0 0 0 0 0 0 0 0 0 0 0 0 0 0 0 0 0 0 0 0 0 0 0
0 0 0 0 0 0 0 -0 -0 0 0 0 0 0 0 0 0 0 0 0 0 0 0 0 0 0 0 0 0 0 0 0 0 0 0 0 0 0 0 0 0 0 0 0 0 0 0 0 0
0 0 0 0 0 0 0 -0 -0 0 0 0 0 0 0 0 0 0 0 0 0 0 0 0 0 0 0 0 0 0 0 0 0 0 0 0 0 0 0 0 0 0 0 0 0 0 0 0 0
0 0 0 0 0 0 0 0 -0 -0 0 -0 -0 0 0 0 0 0 0 0 0 0 0 0 0 0 0 0 0 0 0 0 0 0 0 0 0 0 0 0 0 0 0 0 0 0 0 0 0
0 0 0 0 0 0 0 0 -0 -0 -0 0 0 0 0 0 0 0 0 0 0 0 0 0 0 0 0 0 0 0 0 0 0 0 0 0 0 0 0 0 0 0 0 0 0 0 0 0 0
0 0 0 0 0 0 0 0 0 0 0 0 0 0 0 0 0 0 0 0 0 0 0 0 0 0 0 0 0 0 0 0 0 0 0 0 0 0 0 0 0 0 0 0 0 0 0 0 0
0 0 0 0 0 0 0 0 0 0 0 0 0 0 0 0 0 0 0 0 0 0 0 0 0 0 0 0 0 0 0 0 0 0 0 0 0 0 0 0 0 0 0 0 0 0 0 0 0
0 0 0 0 0 0 0 0 0 0 0 0 0 0 0 0 0 0 0 0 0 0 0 0 0 0 0 0 0 0 0 0 0 0 0 0 0 0 0 0 0 0 0 0 0 0 0 0 0
0 0 0 0 0 0 0 0 0 0 0 0 0 0 0 0 0 0 0 0 0 0 0 0 0 0 -0 -0 0 0 0 0 0 0 0 0 0 0 0 0 0 0 0 0 0 0 0 0 0
0 0 0 0 0 0 0 0 0 0 0 0 0 0 0 0 0 0 0 0 0 0 0 0 0 0 -0 -0 -0 0 0 0 0 0 0 0 0 0 0 0 0 0 0 0 0 0 0 0 0
0 0 0 0 0 0 0 0 0 0 0 0 0 0 0 0 0 0 0 0 0 0 0 0 -0 -0 -0 -0 -0 0 0 0 0 0 0 0 0 0 0 0 0 0 0 0 0 0 0 0 0
Wind_Speed_500mb
10 8 6 6 8 9 4 1 9 10 7 13 14 15 13 8 5 7 33 29 30 38 37 33 29 27 24 20 20 17 18 22 24 25 26 25 23 23 26 31 26 21 29 33 40 40 41 44 45
4 2 6 4 8 7 6 5 11 5 14 18 14 9 12 5 9 31 39 29 28 35 36 35 30 27 25 20 19 18 18 20 22 24 25 25 23 24 27 34 28 18 18 26 36 37 39 40 40
6 5 7 7 5 8 6 8 15 15 18 12 8 6 6 10 18 52 36 41 31 33 38 35 32 28 25 20 16 15 17 18 19 21 22 23 24 26 33 31 27 17 18 24 33 34 36 38 37
7 3 4 7 3 10 13 15 28 15 9 9 11 10 15 17 19 29 43 37 35 31 39 35 32 28 25 21 17 13 14 15 16 17 19 21 23 24 30 27 24 13 13 23 27 31 33 35 33
7 1 6 4 1 6 11 31 21 9 16 13 10 9 15 18 17 26 49 41 36 32 38 35 33 30 27 23 19 14 14 13 13 13 15 17 19 21 24 20 15 9 13 20 23 28 31 33 30
4 3 6 4 3 7 8 19 25 19 20 19 8 12 11 20 22 27 48 39 32 29 31 31 33 31 28 24 22 19 15 13 13 12 13 14 15 15 16 15 12 9 13 19 21 25 29 32 30
8 7 6 2 5 3 9 24 13 12 22 14 13 7 16 21 26 32 50 35 28 27 27 30 36 35 31 28 25 22 17 12 11 10 10 10 11 12 11 9 8 13 17 18 19 22 24 26 26
3 9 5 3 6 5 11 9 7 5 8 24 16 7 11 26 29 35 51 40 32 29 27 31 36 38 36 33 28 24 21 18 15 13 10 9 8 9 10 10 10 12 15 17 18 20 21 21 21
2 8 0 5 7 6 12 6 5 7 16 5 14 11 15 26 31 40 48 47 42 40 38 32 37 40 38 35 32 29 26 22 20 17 12 8 6 6 8 13 15 16 17 18 19 19 19 18 18
7 8 5 5 3 4 10 9 10 4 11 8 13 12 20 26 31 40 50 58 54 52 49 36 39 40 42 40 38 35 32 30 25 22 17 13 8 1 4 13 18 20 20 20 19 18 15 10 11
7 9 5 6 10 7 5 4 2 10 6 20 32 33 34 36 33 38 40 48 56 54 54 47 43 42 40 44 43 41 38 35 32 29 25 20 16 9 5 10 16 18 18 18 18 16 14 9 4
3 4 6 6 6 4 3 5 8 17 21 15 10 28 41 41 40 40 41 44 50 56 52 46 45 50 47 42 43 40 43 41 38 36 33 26 21 16 12 10 12 17 16 13 13 12 13 12 7
5 7 3 4 1 1 6 12 13 25 27 29 26 26 31 44 39 38 38 39 43 52 52 53 49 57 52 50 50 50 46 43 41 41 40 37 30 21 23 18 17 20 16 15 15 13 14 14 13
6 4 7 9 5 6 5 8 4 14 8 26 39 27 27 35 38 37 44 48 51 52 54 55 53 54 60 58 57 55 50 45 45 46 44 43 40 28 30 25 24 23 22 21 22 20 18 18 16
6 5 10 15 13 5 6 11 17 31 25 19 17 26 36 41 37 47 48 51 53 56 55 59 57 58 62 64 60 57 53 54 51 49 49 49 47 42 38 32 34 34 35 39 29 30 28 26 24
5 7 3 8 20 5 5 15 18 3 8 22 24 36 33 34 45 45 49 53 53 57 63 63 64 63 68 70 63 63 60 63 61 55 53 56 54 53 50 47 41 43 46 39 40 37 37 33 31
6 4 9 4 10 6 8 11 10 4 12 22 29 30 35 36 46 49 46 51 54 59 64 73 74 72 71 72 72 69 66 64 67 62 61 60 60 59 59 55 55 52 52 49 47 43 42 42 40
10 5 6 8 8 6 7 18 23 48 52 52 52 49 48 51 53 49 49 50 51 56 66 69 78 78 75 73 79 77 67 66 65 66 64 58 60 61 64 65 62 62 62 58 53 53 51 47 46
5 5 3 8 9 9 13 17 22 50 53 63 65 62 62 63 57 51 54 54 58 58 61 71 76 83 82 81 81 89 88 79 71 74 71 69 64 60 61 70 70 75 77 61 63 63 60 53 54
7 8 9 8 5 5 12 24 24 22 43 59 65 72 67 61 55 49 48 56 60 64 62 64 73 79 85 85 84 85 91 92 92 87 82 77 72 65 66 73 73 77 78 76 71 70 65 65 65
6 8 6 11 3 7 10 15 16 10 20 30 41 50 49 46 47 42 42 50 54 66 65 62 65 73 81 84 82 82 86 88 89 93 94 91 82 75 73 74 77 76 83 81 77 80 79 73 75
6 5 10 10 4 7 3 12 14 15 25 15 55 63 55 50 41 35 28 33 50 45 63 63 61 62 71 78 80 82 86 92 95 94 93 91 85 81 76 79 76 83 83 87 82 81 85 87 76
12 3 4 4 3 6 6 3 16 12 13 25 28 35 26 26 17 20 26 35 34 35 44 56 55 58 68 77 80 79 82 84 87 87 89 87 87 84 81 82 85 85 89 89 82 85 96 86 86
15 12 15 11 6 9 16 15 8 9 14 9 8 9 10 12 14 15 21 28 30 29 35 45 53 56 62 71 74 74 75 75 78 83 83 82 80 77 78 80 92 94 94 98 87 80 89 99 84
11 13 2 5 3 15 7 7 12 14 15 7 10 18 12 22 13 14 18 16 14 20 30 39 44 46 50 60 66 69 70 71 74 77 79 80 78 77 72 73 91 95 97 99 92 93 90 93 92
15 15 11 14 8 10 9 13 10 15 17 24 41 29 15 15 19 19 18 20 27 29 31 30 31 35 39 45 49 53 57 63 68 71 74 78 77 72 66 65 68 85 91 95 95 92 88 107 88
12 13 12 6 3 5 9 14 17 16 20 34 33 24 25 23 24 21 26 28 24 18 18 17 16 18 23 27 32 34 38 47 54 59 65 71 71 69 64 63 64 71 91 92 91 84 95 103 79
13 13 6 2 5 8 10 10 13 14 10 12 20 35 42 21 9 19 17 18 15 15 17 15 11 7 6 7 11 14 19 28 37 46 55 61 65 67 65 61 61 64 70 82 82 86 86 82 96
7 9 8 9 11 11 5 11 10 14 9 11 13 28 32 26 8 11 16 14 16 18 14 12 11 6 3 4 7 12 17 25 33 40 46 52 57 62 60 55 52 52 58 71 78 79 85 85 79
2 16 13 10 8 10 7 20 9 18 12 26 25 32 31 28 25 21 13 11 19 15 11 8 5 7 10 16 21 25 28 31 37 41 42 47 52 53 54 52 52 52 56 61 66 78 70 76 80
Wind_Direction_500mb
179 211 261 357 50 67 127 110 129 97 51 81 76 68 110 80 110 168 124 171 167 165 170 167 159 149 140 135 125 107 94 86 83 82 82 89 100 109 100 105 103 90 82 85 87 91 94 99 99
174 272 5 1 88 69 302 185 113 102 124 102 82 51 70 105 86 141 154 188 191 169 172 170 164 154 150 144 122 107 95 85 85 87 87 89 98 102 101 112 110 98 76 85 88 90 97 106 106
115 357 348 103 97 125 166 139 131 117 113 114 107 100 79 111 119 148 159 175 191 175 175 173 170 162 159 152 135 111 104 100 96 90 89 89 95 103 113 106 121 117 92 83 93 95 99 105 108
128 37 300 73 87 345 120 130 128 114 87 116 118 90 95 119 141 163 168 178 181 178 176 174 174 171 167 164 152 134 122 112 109 98 92 90 93 105 115 122 131 132 99 91 98 97 105 112 112
102 12 39 342 331 148 100 143 133 134 157 159 139 153 112 152 170 154 167 179 184 177 175 178 182 180 177 175 170 157 139 130 120 107 100 95 98 112 122 132 141 130 107 107 109 105 111 119 119
94 54 46 349 241 154 116 131 147 154 147 149 158 121 147 173 188 163 167 175 187 182 175 184 187 188 186 185 182 179 168 153 145 132 118 105 105 117 134 139 138 133 122 119 112 109 119 129 129
110 87 207 285 273 134 156 140 144 152 152 165 155 94 147 173 176 171 165 176 184 187 190 194 194 192 192 194 194 191 186 175 162 150 137 125 117 119 129 136 111 120 125 119 114 119 130 135 136
93 100 329 269 279 119 144 111 154 122 164 153 180 153 176 182 162 163 167 175 183 193 201 200 201 200 198 198 200 198 195 194 185 176 163 140 123 122 130 131 128 121 118 116 117 124 134 135 138
126 64 196 299 328 128 137 104 129 106 133 163 166 164 166 166 167 170 167 178 189 198 206 202 208 207 206 206 206 203 202 202 193 177 167 140 105 96 140 140 135 127 121 120 123 130 135 140 138
106 106 210 17 30 98 129 118 171 179 151 170 173 183 177 181 183 184 183 183 194 202 204 208 205 215 211 210 210 209 207 205 201 188 193 200 201 201 157 148 137 130 125 123 125 131 139 146 137
173 165 188 54 66 60 71 61 182 176 215 210 210 204 200 200 199 197 198 199 204 207 214 219 208 209 218 219 213 214 212 210 204 199 209 210 215 199 195 166 145 137 135 137 143 146 147 154 161
122 270 114 110 38 34 64 299 281 216 227 194 323 229 218 213 214 210 209 206 205 212 220 223 212 206 215 217 219 224 220 214 212 209 211 212 219 221 216 197 184 169 162 168 162 164 163 168 192
124 348 34 141 25 242 260 256 255 260 242 241 267 250 219 222 223 222 223 218 215 216 221 224 217 210 212 217 218 220 221 223 223 218 219 217 212 221 211 218 224 199 198 218 201 200 189 180 187
125 23 278 201 214 212 227 257 338 261 212 233 238 241 242 226 230 230 222 223 219 224 225 228 226 218 214 217 221 223 221 224 228 225 225 224 216 218 222 230 230 229 236 238 226 223 216 202 201
88 2 318 239 198 175 225 298 227 277 227 247 232 237 239 237 238 242 244 236 230 228 230 229 229 223 221 222 222 225 226 226 231 232 229 227 229 224 228 233 234 230 224 227 217 225 220 214 207
128 77 14 314 152 199 142 271 281 29 223 241 250 241 242 248 244 255 253 244 239 235 230 232 233 228 225 226 226 225 229 229 232 234 236 232 233 232 228 224 232 238 226 228 232 224 219 217 214
337 200 206 296 207 132 169 265 258 283 306 288 284 264 254 251 249 251 254 253 247 241 234 230 232 234 229 229 227 228 229 229 229 233 237 238 235 233 231 230 230 229 232 235 233 231 227 222 218
199 202 271 215 220 170 215 255 275 283 291 286 281 271 259 257 255 255 254 254 253 246 239 236 233 234 235 230 228 229 229 229 229 230 234 236 237 235 232 232 233 232 231 233 231 230 225 223 218
185 140 199 264 204 163 228 256 265 276 285 276 272 270 265 262 269 265 262 259 254 248 240 235 234 233 234 231 229 225 224 225 224 231 235 239 238 239 235 235 234 234 235 241 233 232 223 216 218
190 220 254 297 174 158 266 272 264 251 263 266 270 273 272 273 273 269 259 258 252 250 246 239 237 237 236 237 236 232 231 228 232 235 239 242 242 240 236 237 238 239 234 237 240 230 234 221 221
193 171 234 222 350 284 307 288 291 288 253 278 269 266 270 273 277 279 263 253 251 247 244 245 244 241 239 238 238 236 236 236 234 234 238 240 241 239 236 238 243 244 241 241 237 238 244 237 224
234 200 229 254 24 235 131 284 295 267 278 277 269 267 273 284 278 269 261 253 249 251 243 242 245 247 245 242 241 241 239 237 237 238 240 241 237 236 241 245 242 246 244 238 239 249 234 229 236
204 139 116 128 162 351 285 265 270 286 276 256 275 272 283 283 281 267 243 234 254 243 238 238 240 246 247 243 244 246 245 244 246 246 246 245 246 244 240 243 247 245 244 243 247 243 243 243 234
148 69 36 36 65 278 195 198 278 218 232 278 259 230 240 236 249 242 228 237 254 252 239 234 238 242 244 246 247 248 249 249 248 249 251 250 248 246 247 238 239 246 243 246 250 245 242 243 252
108 105 318 326 350 240 276 239 227 258 226 259 286 312 258 238 238 218 213 216 234 249 243 242 244 243 239 241 245 249 252 253 253 253 256 258 257 255 254 249 238 238 245 241 249 246 245 251 240
190 161 165 200 206 264 329 238 246 230 255 304 307 313 320 261 236 230 244 263 275 252 240 244 247 245 241 239 241 247 253 255 257 257 260 262 262 262 259 259 251 240 242 244 248 244 250 249 250
202 208 171 77 54 24 232 293 306 284 298 329 336 359 360 299 246 255 277 282 266 247 232 219 220 227 230 237 242 248 255 260 262 262 261 262 263 263 261 259 256 250 239 242 246 247 254 246 252
154 162 81 5 161 243 255 259 231 280 45 2 15 26 19 14 270 280 264 273 250 207 176 163 152 147 177 221 241 257 269 270 269 267 266 266 265 263 263 260 258 256 241 239 245 250 247 250 257
141 192 192 147 158 179 266 258 229 132 158 96 59 43 33 30 13 314 301 267 197 168 156 136 113 92 68 1 334 325 299 286 281 275 269 265 266 266 264 262 259 254 242 241 244 250 248 250 256
248 204 166 148 229 226 167 254 169 135 145 82 60 48 35 20 2 334 305 217 185 170 171 166 221 283 297 304 303 301 295 297 289 285 279 269 266 266 266 260 254 250 246 246 246 248 250 253 253
Wind_Speed_850mb
10 8 6 6 8 9 4 1 9 10 7 13 14 15 13 8 5 7 33 29 30 38 37 33 29 27 24 20 20 17 18 22 24 25 26 25 23 23 26 31 26 21 29 33 40 40 41 44 45
4 2 6 4 8 7 6 5 11 5 14 18 14 9 12 5 9 31 39 29 28 35 36 35 30 27 25 20 19 18 18 20 22 24 25 25 23 24 27 34 28 18 18 26 36 37 39 40 40
6 5 7 7 5 8 6 8 15 15 18 12 8 6 6 10 18 52 36 41 31 33 38 35 32 28 25 20 16 15 17 18 19 21 22 23 24 26 33 31 27 17 18 24 33 34 36 38 37
7 3 4 7 3 10 13 15 28 15 9 9 11 10 15 17 19 29 43 37 35 31 39 35 32 28 25 21 17 13 14 15 16 17 19 21 23 24 30 27 24 13 13 23 27 31 33 35 33
7 1 6 4 1 6 11 31 21 9 16 13 10 9 15 18 17 26 49 41 36 32 38 35 33 30 27 23 19 14 14 13 13 13 15 17 19 21 24 20 15 9 13 20 23 28 31 33 30
4 3 6 4 3 7 8 19 25 19 20 19 8 12 11 20 22 27 48 39 32 29 31 31 33 31 28 24 22 19 15 13 13 12 13 14 15 15 16 15 12 9 13 19 21 25 29 32 30
8 7 6 2 5 3 9 24 13 12 22 14 13 7 16 21 26 32 50 35 28 27 27 30 36 35 31 28 25 22 17 12 11 10 10 10 11 12 11 9 8 13 17 18 19 22 24 26 26
3 9 5 3 6 5 11 9 7 5 8 24 16 7 11 26 29 35 51 40 32 29 27 31 36 38 36 33 28 24 21 18 15 13 10 9 8 9 10 10 10 12 15 17 18 20 21 21 21
2 8 0 5 7 6 12 6 5 7 16 5 14 11 15 26 31 40 48 47 42 40 38 32 37 40 38 35 32 29 26 22 20 17 12 8 6 6 8 13 15 16 17 18 19 19 19 18 18
7 8 5 5 3 4 10 9 10 4 11 8 13 12 20 26 31 40 50 58 54 52 49 36 39 40 42 40 38 35 32 30 25 22 17 13 8 1 4 13 18 20 20 20 19 18 15 10 11
7 9 5 6 10 7 5 4 2 10 6 20 32 33 34 36 33 38 40 48 56 54 54 47 43 42 40 44 43 41 38 35 32 29 25 20 16 9 5 10 16 18 18 18 18 16 14 9 4
3 4 6 6 6 4 3 5 8 17 21 15 10 28 41 41 40 40 41 44 50 56 52 46 45 50 47 42 43 40 43 41 38 36 33 26 21 16 12 10 12 17 16 13 13 12 13 12 7
5 7 3 4 1 1 6 12 13 25 27 29 26 26 31 44 39 38 38 39 43 52 52 53 49 57 52 50 50 50 46 43 41 41 40 37 30 21 23 18 17 20 16 15 15 13 14 14 13
6 4 7 9 5 6 5 8 4 14 8 26 39 27 27 35 38 37 44 48 51 52 54 55 53 54 60 58 57 55 50 45 45 46 44 43 40 28 30 25 24 23 22 21 22 20 18 18 16
6 5 10 15 13 5 6 11 17 31 25 19 17 26 36 41 37 47 48 51 53 56 55 59 57 58 62 64 60 57 53 54 51 49 49 49 47 42 38 32 34 34 35 39 29 30 28 26 24
5 7 3 8 20 5 5 15 18 3 8 22 24 36 33 34 45 45 49 53 53 57 63 63 64 63 68 70 63 63 60 63 61 55 53 56 54 53 50 47 41 43 46 39 40 37 37 33 31
6 4 9 4 10 6 8 11 10 4 12 22 29 30 35 36 46 49 46 51 54 59 64 73 74 72 71 72 72 69 66 64 67 62 61 60 60 59 59 55 55 52 52 49 47 43 42 42 40
10 5 6 8 8 6 7 18 23 48 52 52 52 49 48 51 53 49 49 50 51 56 66 69 78 78 75 73 79 77 67 66 65 66 64 58 60 61 64 65 62 62 62 58 53 53 51 47 46
5 5 3 8 9 9 13 17 22 50 53 63 65 62 62 63 57 51 54 54 58 58 61 71 76 83 82 81 81 89 88 79 71 74 71 69 64 60 61 70 70 75 77 61 63 63 60 53 54
7 8 9 8 5 5 12 24 24 22 43 59 65 72 67 61 55 49 48 56 60 64 62 64 73 79 85 85 84 85 91 92 92 87 82 77 72 65 66 73 73 77 78 76 71 70 65 65 65
6 8 6 11 3 7 10 15 16 10 20 30 41 50 49 46 47 42 42 50 54 66 65 62 65 73 81 84 82 82 86 88 89 93 94 91 82 75 73 74 77 76 83 81 77 80 79 73 75
6 5 10 10 4 7 3 12 14 15 25 15 55 63 55 50 41 35 28 33 50 45 63 63 61 62 71 78 80 82 86 92 95 94 93 91 85 81 76 79 76 83 83 87 82 81 85 87 76
12 3 4 4 3 6 6 3 16 12 13 25 28 35 26 26 17 20 26 35 34 35 44 56 55 58 68 77 80 79 82 84 87 87 89 87 87 84 81 82 85 85 89 89 82 85 96 86 86
15 12 15 11 6 9 16 15 8 9 14 9 8 9 10 12 14 15 21 28 30 29 35 45 53 56 62 71 74 74 75 75 78 83 83 82 80 77 78 80 92 94 94 98 87 80 89 99 84
11 13 2 5 3 15 7 7 12 14 15 7 10 18 12 22 13 14 18 16 14 20 30 39 44 46 50 60 66 69 70 71 74 77 79 80 78 77 72 73 91 95 97 99 92 93 90 93 92
15 15 11 14 8 10 9 13 10 15 17 24 41 29 15 15 19 19 18 20 27 29 31 30 31 35 39 45 49 53 57 63 68 71 74 78 77 72 66 65 68 85 91 95 95 92 88 107 88
12 13 12 6 3 5 9 14 17 16 20 34 33 24 25 23 24 21 26 28 24 18 18 17 16 18 23 27 32 34 38 47 54 59 65 71 71 69 64 63 64 71 91 92 91 84 95 103 79
13 13 6 2 5 8 10 10 13 14 10 12 20 35 42 21 9 19 17 18 15 15 17 15 11 7 6 7 11 14 19 28 37 46 55 61 65 67 65 61 61 64 70 82 82 86 86 82 96
7 9 8 9 11 11 5 11 10 14 9 11 13 28 32 26 8 11 16 14 16 18 14 12 11 6 3 4 7 12 17 25 33 40 46 52 57 62 60 55 52 52 58 71 78 79 85 85 79
2 16 13 10 8 10 7 20 9 18 12 26 25 32 31 28 25 21 13 11 19 15 11 8 5 7 10 16 21 25 28 31 37 41 42 47 52 53 54 52 52 52 56 61 66 78 70 76 80
Wind_Direction_850mb
179 211 261 357 50 67 127 110 129 97 51 81 76 68 110 80 110 168 124 171 167 165 170 167 159 149 140 135 125 107 94 86 83 82 82 89 100 109 100 105 103 90 82 85 87 91 94 99 99
174 272 5 1 88 69 302 185 113 102 124 102 82 51 70 105 86 141 154 188 191 169 172 170 164 154 150 144 122 107 95 85 85 87 87 89 98 102 101 112 110 98 76 85 88 90 97 106 106
115 357 348 103 97 125 166 139 131 117 113 114 107 100 79 111 119 148 159 175 191 175 175 173 170 162 159 152 135 111 104 100 96 90 89 89 95 103 113 106 121 117 92 83 93 95 99 105 108
128 37 300 73 87 345 120 130 128 114 87 116 118 90 95 119 141 163 168 178 181 178 176 174 174 171 167 164 152 134 122 112 109 98 92 90 93 105 115 122 131 132 99 91 98 97 105 112 112
102 12 39 342 331 148 100 143 133 134 157 159 139 153 112 152 170 154 167 179 184 177 175 178 182 180 177 175 170 157 139 130 120 107 100 95 98 112 122 132 141 130 107 107 109 105 111 119 119
94 54 46 349 241 154 116 131 147 154 147 149 158 121 147 173 188 163 167 175 187 182 175 184 187 188 186 185 182 179 168 153 145 132 118 105 105 117 134 139 138 133 122 119 112 109 119 129 129
110 87 207 285 273 134 156 140 144 152 152 165 155 94 147 173 176 171 165 176 184 187 190 194 194 192 192 194 194 191 186 175 162 150 137 125 117 119 129 136 111 120 125 119 114 119 130 135 136
93 100 329 269 279 119 144 111 154 122 164 153 180 153 176 182 162 163 167 175 183 193 201 200 201 200 198 198 200 198 195 194 185 176 163 140 123 122 130 131 128 121 118 116 117 124 134 135 138
126 64 196 299 328 128 137 104 129 106 133 163 166 164 166 166 167 170 167 178 189 198 206 202 208 207 206 206 206 203 202 202 193 177 167 140 105 96 140 140 135 127 121 120 123 130 135 140 138
106 106 210 17 30 98 129 118 171 179 151 170 173 183 177 181 183 184 183 183 194 202 204 208 205 215 211 210 210 209 207 205 201 188 193 200 201 201 157 148 137 130 125 123 125 131 139 146 137
173 165 188 54 66 60 71 61 182 176 215 210 210 204 200 200 199 197 198 199 204 207 214 219 208 209 218 219 213 214 212 210 204 199 209 210 215 199 195 166 145 137 135 137 143 146 147 154 161
122 270 114 110 38 34 64 299 281 216 227 194 323 229 218 213 214 210 209 206 205 212 220 223 212 206 215 217 219 224 220 214 212 209 211 212 219 221 216 197 184 169 162 168 162 164 163 168 192
124 348 34 141 25 242 260 256 255 260 242 241 267 250 219 222 223 222 223 218 215 216 221 224 217 210 212 217 218 220 221 223 223 218 219 217 212 221 211 218 224 199 198 218 201 200 189 180 187
125 23 278 201 214 212 227 257 338 261 212 233 238 241 242 226 230 230 222 223 219 224 225 228 226 218 214 217 221 223 221 224 228 225 225 224 216 218 222 230 230 229 236 238 226 223 216 202 201
88 2 318 239 198 175 225 298 227 277 227 247 232 237 239 237 238 242 244 236 230 228 230 229 229 223 221 222 222 225 226 226 231 232 229 227 229 224 228 233 234 230 224 227 217 225 220 214 207
128 77 14 314 152 199 142 271 281 29 223 241 250 241 242 248 244 255 253 244 239 235 230 232 233 228 225 226 226 225 229 229 232 234 236 232 233 232 228 224 232 238 226 228 232 224 219 217 214
337 200 206 296 207 132 169 265 258 283 306 288 284 264 254 251 249 251 254 253 247 241 234 230 232 234 229 229 227 228 229 229 229 233 237 238 235 233 231 230 230 229 232 235 233 231 227 222 218
199 202 271 215 220 170 215 255 275 283 291 286 281 271 259 257 255 255 254 254 253 246 239 236 233 234 235 230 228 229 229 229 229 230 234 236 237 235 232 232 233 232 231 233 231 230 225 223 218
185 140 199 264 204 163 228 256 265 276 285 276 272 270 265 262 269 265 262 259 254 248 240 235 234 233 234 231 229 225 224 225 224 231 235 239 238 239 235 235 234 234 235 241 233 232 223 216 218
190 220 254 297 174 158 266 272 264 251 263 266 270 273 272 273 273 269 259 258 252 250 246 239 237 237 236 237 236 232 231 228 232 235 239 242 242 240 236 237 238 239 234 237 240 230 234 221 221
193 171 234 222 350 284 307 288 291 288 253 278 269 266 270 273 277 279 263 253 251 247 244 245 244 241 239 238 238 236 236 236 234 234 238 240 241 239 236 238 243 244 241 241 237 238 244 237 224
234 200 229 254 24 235 131 284 295 267 278 277 269 267 273 284 278 269 261 253 249 251 243 242 245 247 245 242 241 241 239 237 237 238 240 241 237 236 241 245 242 246 244 238 239 249 234 229 236
204 139 116 128 162 351 285 265 270 286 276 256 275 272 283 283 281 267 243 234 254 243 238 238 240 246 247 243 244 246 245 244 246 246 246 245 246 244 240 243 247 245 244 243 247 243 243 243 234
148 69 36 36 65 278 195 198 278 218 232 278 259 230 240 236 249 242 228 237 254 252 239 234 238 242 244 246 247 248 249 249 248 249 251 250 248 246 247 238 239 246 243 246 250 245 242 243 252
108 105 318 326 350 240 276 239 227 258 226 259 286 312 258 238 238 218 213 216 234 249 243 242 244 243 239 241 245 249 252 253 253 253 256 258 257 255 254 249 238 238 245 241 249 246 245 251 240
190 161 165 200 206 264 329 238 246 230 255 304 307 313 320 261 236 230 244 263 275 252 240 244 247 245 241 239 241 247 253 255 257 257 260 262 262 262 259 259 251 240 242 244 248 244 250 249 250
202 208 171 77 54 24 232 293 306 284 298 329 336 359 360 299 246 255 277 282 266 247 232 219 220 227 230 237 242 248 255 260 262 262 261 262 263 263 261 259 256 250 239 242 246 247 254 246 252
154 162 81 5 161 243 255 259 231 280 45 2 15 26 19 14 270 280 264 273 250 207 176 163 152 147 177 221 241 257 269 270 269 267 266 266 265 263 263 260 258 256 241 239 245 250 247 250 257
141 192 192 147 158 179 266 258 229 132 158 96 59 43 33 30 13 314 301 267 197 168 156 136 113 92 68 1 334 325 299 286 281 275 269 265 266 266 264 262 259 254 242 241 244 250 248 250 256
248 204 166 148 229 226 167 254 169 135 145 82 60 48 35 20 2 334 305 217 185 170 171 166 221 283 297 304 303 301 295 297 289 285 279 269 266 266 266 260 254 250 246 246 246 248 250 253 253